Time,TemperatureF,DewpointF,PressureIn,WindDirection,WindDirectionDegrees,WindSpeedMPH,WindSpeedGustMPH,Humidity,HourlyPrecipIn,Conditions,Clouds,dailyrainin,SoftwareType,DateUTC
2013-08-09 00:07:00,79.9,74.6,29.77,NNE,22,1.7,-999.0,84,-99.99,,,0.00,Acu-Link.com,2013-08-09 05:07:00,
2013-08-09 00:23:00,79.5,74.6,29.78,SE,135,0.0,-999.0,85,-99.99,,,0.00,Acu-Link.com,2013-08-09 05:23:00,
2013-08-09 00:38:00,79.2,74.6,29.78,ESE,112,1.1,-999.0,86,-99.99,,,0.00,Acu-Link.com,2013-08-09 05:38:00,
2013-08-09 00:53:00,78.8,74.6,29.78,SSE,157,1.1,-999.0,87,-99.99,,,0.00,Acu-Link.com,2013-08-09 05:53:00,
2013-08-09 01:08:00,78.8,74.6,29.77,SE,135,2.7,-999.0,87,-99.99,,,0.00,Acu-Link.com,2013-08-09 06:08:00,
2013-08-09 01:23:00,78.8,74.6,29.77,ESE,112,3.2,-999.0,87,-99.99,,,0.00,Acu-Link.com,2013-08-09 06:23:00,
2013-08-09 01:38:00,78.8,74.6,29.78,ENE,67,1.7,-999.0,87,-99.99,,,0.00,Acu-Link.com,2013-08-09 06:38:00,
2013-08-09 01:53:00,78.4,74.2,29.78,SE,135,0.0,-999.0,87,-99.99,,,0.00,Acu-Link.com,2013-08-09 06:53:00,
2013-08-09 02:08:00,78.3,74.1,29.78,SSE,157,2.2,-999.0,87,-99.99,,,0.00,Acu-Link.com,2013-08-09 07:08:00,
2013-08-09 02:23:00,78.1,74.2,29.78,ESE,112,0.0,-999.0,88,-99.99,,,0.00,Acu-Link.com,2013-08-09 07:23:00,
2013-08-09 02:39:00,77.7,73.9,29.76,ESE,112,2.2,-999.0,88,-99.99,,,0.00,Acu-Link.com,2013-08-09 07:39:00,
2013-08-09 02:54:00,77.7,74.2,29.75,South,180,0.0,-999.0,89,-99.99,,,0.00,Acu-Link.com,2013-08-09 07:54:00,
2013-08-09 03:09:00,77.5,74.3,29.76,SE,135,0.0,-999.0,90,-99.99,,,0.00,Acu-Link.com,2013-08-09 08:09:00,
2013-08-09 03:24:00,77.7,74.5,29.77,SSE,157,1.7,-999.0,90,-99.99,,,0.00,Acu-Link.com,2013-08-09 08:24:00,
2013-08-09 03:39:00,77.4,74.2,29.77,SE,135,0.0,-999.0,90,-99.99,,,0.00,Acu-Link.com,2013-08-09 08:39:00,
2013-08-09 03:55:00,77.4,74.9,29.77,SSE,157,2.7,-999.0,92,-99.99,,,0.00,Acu-Link.com,2013-08-09 08:55:00,
2013-08-09 04:10:00,77.5,75.0,29.75,SSE,157,1.1,-999.0,92,-99.99,,,0.00,Acu-Link.com,2013-08-09 09:10:00,
2013-08-09 04:25:00,77.2,74.7,29.74,SSE,157,1.1,-999.0,92,-99.99,,,0.00,Acu-Link.com,2013-08-09 09:25:00,
2013-08-09 04:40:00,77.0,74.8,29.77,SSE,157,0.0,-999.0,93,-99.99,,,0.00,Acu-Link.com,2013-08-09 09:40:00,
2013-08-09 04:55:00,76.6,74.4,29.77,SSE,157,0.0,-999.0,93,-99.99,,,0.00,Acu-Link.com,2013-08-09 09:55:00,
2013-08-09 05:11:00,76.8,74.9,29.76,SSE,157,0.0,-999.0,94,-99.99,,,0.00,Acu-Link.com,2013-08-09 10:11:00,
2013-08-09 05:26:00,76.8,74.9,29.74,East,90,1.1,-999.0,94,-99.99,,,0.00,Acu-Link.com,2013-08-09 10:26:00,
2013-08-09 05:41:00,76.8,74.9,29.73,SSE,157,0.0,-999.0,94,-99.99,,,0.00,Acu-Link.com,2013-08-09 10:41:00,
2013-08-09 05:56:00,76.6,74.7,29.76,ESE,112,0.0,-999.0,94,-99.99,,,0.00,Acu-Link.com,2013-08-09 10:56:00,
2013-08-09 06:11:00,76.6,74.7,29.77,ESE,112,0.0,-999.0,94,-99.99,,,0.00,Acu-Link.com,2013-08-09 11:11:00,
2013-08-09 06:26:00,76.6,74.7,29.75,SSE,157,2.7,-999.0,94,-99.99,,,0.00,Acu-Link.com,2013-08-09 11:26:00,
2013-08-09 06:42:00,76.8,74.9,29.74,SSE,157,0.0,-999.0,94,-99.99,,,0.00,Acu-Link.com,2013-08-09 11:42:00,
2013-08-09 06:57:00,76.6,74.7,29.75,SE,135,0.0,-999.0,94,-99.99,,,0.00,Acu-Link.com,2013-08-09 11:57:00,
2013-08-09 07:12:00,76.6,74.7,29.76,ENE,67,0.0,-999.0,94,-99.99,,,0.00,Acu-Link.com,2013-08-09 12:12:00,
2013-08-09 07:27:00,76.8,74.9,29.75,SSE,157,0.0,-999.0,94,-99.99,,,0.00,Acu-Link.com,2013-08-09 12:27:00,
2013-08-09 07:42:00,77.0,75.1,29.76,SE,135,0.0,-999.0,94,-99.99,,,0.00,Acu-Link.com,2013-08-09 12:42:00,
2013-08-09 07:57:00,77.7,75.8,29.76,SSE,157,2.2,-999.0,94,-99.99,,,0.00,Acu-Link.com,2013-08-09 12:57:00,
2013-08-09 08:12:00,78.4,75.5,29.76,SE,135,2.2,-999.0,91,-99.99,,,0.00,Acu-Link.com,2013-08-09 13:12:00,
2013-08-09 08:27:00,79.7,76.2,29.77,South,180,2.2,-999.0,89,-99.99,,,0.00,Acu-Link.com,2013-08-09 13:27:00,
2013-08-09 08:42:00,80.1,76.6,29.77,West,270,0.0,-999.0,89,-99.99,,,0.00,Acu-Link.com,2013-08-09 13:42:00,
2013-08-09 08:58:00,81.3,76.3,29.77,SE,135,1.7,-999.0,85,-99.99,,,0.00,Acu-Link.com,2013-08-09 13:58:00,
2013-08-09 09:13:00,82.4,76.0,29.77,SSE,157,2.2,-999.0,81,-99.99,,,0.00,Acu-Link.com,2013-08-09 14:13:00,
2013-08-09 09:28:00,84.6,76.6,29.76,South,180,2.7,-999.0,77,-99.99,,,0.00,Acu-Link.com,2013-08-09 14:28:00,
2013-08-09 09:43:00,88.0,77.0,29.77,SW,225,3.2,-999.0,70,-99.99,,,0.00,Acu-Link.com,2013-08-09 14:43:00,
2013-08-09 09:58:00,89.4,76.1,29.76,SSE,157,2.7,-999.0,65,-99.99,,,0.00,Acu-Link.com,2013-08-09 14:58:00,
2013-08-09 10:13:00,93.6,76.6,29.76,ENE,67,3.7,-999.0,58,-99.99,,,0.00,Acu-Link.com,2013-08-09 15:13:00,
2013-08-09 10:28:00,93.9,76.8,29.76,East,90,6.3,-999.0,58,-99.99,,,0.00,Acu-Link.com,2013-08-09 15:28:00,
2013-08-09 10:43:00,93.9,76.8,29.76,SSE,157,2.7,-999.0,58,-99.99,,,0.00,Acu-Link.com,2013-08-09 15:43:00,
2013-08-09 10:58:00,98.4,77.1,29.76,NNE,22,0.0,-999.0,51,-99.99,,,0.00,Acu-Link.com,2013-08-09 15:58:00,
2013-08-09 11:13:00,93.2,75.7,29.75,SSE,157,3.2,-999.0,57,-99.99,,,0.00,Acu-Link.com,2013-08-09 16:13:00,
2013-08-09 11:29:00,97.7,77.0,29.76,East,90,4.7,-999.0,52,-99.99,,,0.00,Acu-Link.com,2013-08-09 16:29:00,
2013-08-09 11:44:00,95.9,75.4,29.77,ESE,112,0.0,-999.0,52,-99.99,,,0.00,Acu-Link.com,2013-08-09 16:44:00,
2013-08-09 11:59:00,98.2,75.7,29.76,North,0,2.2,-999.0,49,-99.99,,,0.00,Acu-Link.com,2013-08-09 16:59:00,
2013-08-09 12:14:00,97.9,74.8,29.75,ENE,67,4.7,-999.0,48,-99.99,,,0.00,Acu-Link.com,2013-08-09 17:14:00,
2013-08-09 12:29:00,95.9,75.4,29.75,North,0,5.3,-999.0,52,-99.99,,,0.00,Acu-Link.com,2013-08-09 17:29:00,
2013-08-09 12:44:00,98.4,75.3,29.74,ESE,112,8.3,-999.0,48,-99.99,,,0.00,Acu-Link.com,2013-08-09 17:44:00,
2013-08-09 12:59:00,98.4,75.3,29.76,East,90,5.8,-999.0,48,-99.99,,,0.00,Acu-Link.com,2013-08-09 17:59:00,
2013-08-09 13:14:00,98.6,75.5,29.76,ENE,67,5.8,-999.0,48,-99.99,,,0.00,Acu-Link.com,2013-08-09 18:14:00,
2013-08-09 13:30:00,99.0,75.2,29.75,East,90,3.2,-999.0,47,-99.99,,,0.00,Acu-Link.com,2013-08-09 18:30:00,
2013-08-09 13:45:00,99.1,75.3,29.73,East,90,4.2,-999.0,47,-99.99,,,0.00,Acu-Link.com,2013-08-09 18:45:00,
2013-08-09 14:00:00,99.3,76.1,29.74,NE,45,2.7,-999.0,48,-99.99,,,0.00,Acu-Link.com,2013-08-09 19:00:00,
2013-08-09 14:15:00,99.3,76.1,29.75,NNW,337,2.7,-999.0,48,-99.99,,,0.00,Acu-Link.com,2013-08-09 19:15:00,
2013-08-09 14:30:00,98.4,75.9,29.76,ENE,67,4.7,-999.0,49,-99.99,,,0.00,Acu-Link.com,2013-08-09 19:30:00,
2013-08-09 14:45:00,98.1,76.2,29.77,East,90,6.3,-999.0,50,-99.99,,,0.00,Acu-Link.com,2013-08-09 19:45:00,
2013-08-09 15:00:00,98.4,76.5,29.76,NNE,22,2.7,-999.0,50,-99.99,,,0.00,Acu-Link.com,2013-08-09 20:00:00,
2013-08-09 15:15:00,98.2,76.3,29.74,East,90,6.8,-999.0,50,-99.99,,,0.00,Acu-Link.com,2013-08-09 20:15:00,
2013-08-09 15:30:00,98.6,76.1,29.72,East,90,7.8,-999.0,49,-99.99,,,0.00,Acu-Link.com,2013-08-09 20:30:00,
2013-08-09 15:46:00,97.2,76.6,29.73,East,90,7.3,-999.0,52,-99.99,,,0.00,Acu-Link.com,2013-08-09 20:46:00,
2013-08-09 16:01:00,97.0,76.4,29.73,ESE,112,14.5,-999.0,52,-99.99,,,0.00,Acu-Link.com,2013-08-09 21:01:00,
2013-08-09 16:16:00,97.3,76.1,29.73,East,90,9.9,-999.0,51,-99.99,,,0.00,Acu-Link.com,2013-08-09 21:16:00,
2013-08-09 16:31:00,95.9,77.1,29.74,ENE,67,6.8,-999.0,55,-99.99,,,0.00,Acu-Link.com,2013-08-09 21:31:00,
2013-08-09 16:46:00,97.5,78.0,29.73,East,90,9.4,-999.0,54,-99.99,,,0.00,Acu-Link.com,2013-08-09 21:46:00,
2013-08-09 17:01:00,93.7,77.7,29.72,NE,45,4.7,-999.0,60,-99.99,,,0.00,Acu-Link.com,2013-08-09 22:01:00,
2013-08-09 17:16:00,93.9,77.9,29.71,NE,45,5.3,-999.0,60,-99.99,,,0.00,Acu-Link.com,2013-08-09 22:16:00,
2013-08-09 17:31:00,91.6,77.7,29.73,NNE,22,2.7,-999.0,64,-99.99,,,0.00,Acu-Link.com,2013-08-09 22:31:00,
2013-08-09 17:46:00,91.4,78.4,29.73,ESE,112,8.9,-999.0,66,-99.99,,,0.00,Acu-Link.com,2013-08-09 22:46:00,
2013-08-09 18:02:00,92.3,77.4,29.73,East,90,11.9,-999.0,62,-99.99,,,0.00,Acu-Link.com,2013-08-09 23:02:00,
2013-08-09 18:17:00,91.6,78.1,29.73,East,90,6.3,-999.0,65,-99.99,,,0.00,Acu-Link.com,2013-08-09 23:17:00,
2013-08-09 18:32:00,90.9,78.4,29.73,NE,45,6.8,-999.0,67,-99.99,,,0.00,Acu-Link.com,2013-08-09 23:32:00,
2013-08-09 18:47:00,91.0,78.0,29.72,East,90,8.9,-999.0,66,-99.99,,,0.00,Acu-Link.com,2013-08-09 23:47:00,
2013-08-09 19:02:00,89.4,77.4,29.72,ESE,112,4.2,-999.0,68,-99.99,,,0.00,Acu-Link.com,2013-08-10 00:02:00,
2013-08-09 19:17:00,89.1,77.6,29.72,NNE,22,8.3,-999.0,69,-99.99,,,0.00,Acu-Link.com,2013-08-10 00:17:00,
2013-08-09 19:32:00,88.2,77.1,29.72,ESE,112,4.2,-999.0,70,-99.99,,,0.00,Acu-Link.com,2013-08-10 00:32:00,
2013-08-09 19:47:00,86.4,76.7,29.73,East,90,7.3,-999.0,73,-99.99,,,0.00,Acu-Link.com,2013-08-10 00:47:00,
2013-08-09 20:02:00,85.3,76.5,29.74,NE,45,6.3,-999.0,75,-99.99,,,0.00,Acu-Link.com,2013-08-10 01:02:00,
2013-08-09 20:18:00,84.7,76.3,29.75,East,90,7.8,-999.0,76,-99.99,,,0.00,Acu-Link.com,2013-08-10 01:18:00,
2013-08-09 20:33:00,84.2,76.2,29.75,ESE,112,5.8,-999.0,77,-99.99,,,0.00,Acu-Link.com,2013-08-10 01:33:00,
2013-08-09 20:48:00,84.0,76.4,29.76,East,90,2.2,-999.0,78,-99.99,,,0.00,Acu-Link.com,2013-08-10 01:48:00,
2013-08-09 21:03:00,83.7,76.1,29.75,East,90,4.7,-999.0,78,-99.99,,,0.00,Acu-Link.com,2013-08-10 02:03:00,
2013-08-09 21:18:00,83.7,76.1,29.76,NE,45,2.7,-999.0,78,-99.99,,,0.00,Acu-Link.com,2013-08-10 02:18:00,
2013-08-09 21:33:00,83.5,76.3,29.78,East,90,5.3,-999.0,79,-99.99,,,0.00,Acu-Link.com,2013-08-10 02:33:00,
2013-08-09 21:48:00,83.3,76.1,29.79,North,0,5.8,-999.0,79,-99.99,,,0.00,Acu-Link.com,2013-08-10 02:48:00,
2013-08-09 22:03:00,83.3,76.1,29.80,East,90,3.2,-999.0,79,-99.99,,,0.00,Acu-Link.com,2013-08-10 03:03:00,
2013-08-09 22:18:00,83.3,76.5,29.80,ESE,112,2.2,-999.0,80,-99.99,,,0.00,Acu-Link.com,2013-08-10 03:18:00,
2013-08-09 22:34:00,83.1,76.6,29.81,ESE,112,1.7,-999.0,81,-99.99,,,0.00,Acu-Link.com,2013-08-10 03:34:00,
2013-08-09 22:49:00,83.1,76.6,29.82,ESE,112,2.7,-999.0,81,-99.99,,,0.00,Acu-Link.com,2013-08-10 03:49:00,
2013-08-09 23:04:00,82.9,76.8,29.83,ESE,112,5.8,-999.0,82,-99.99,,,0.00,Acu-Link.com,2013-08-10 04:04:00,
2013-08-09 23:19:00,82.9,76.8,29.84,ESE,112,0.0,-999.0,82,-99.99,,,0.00,Acu-Link.com,2013-08-10 04:19:00,
2013-08-09 23:34:00,82.8,77.1,29.84,East,90,3.7,-999.0,83,-99.99,,,0.00,Acu-Link.com,2013-08-10 04:34:00,
2013-08-09 23:49:00,82.8,77.1,29.83,East,90,5.3,-999.0,83,-99.99,,,0.00,Acu-Link.com,2013-08-10 04:49:00,